This is the latest recevied weather packets stored in our database for station/object KD8NVS-13. If no packets are shown the sender has not sent any weather packets the latest 10 day(s).
| Time | Temp. | Humidity | Pressure | Rain* | Wind** | Luminosity | Snow |
|---|---|---|---|---|---|---|---|
| 1777848069 | 15.56° C | 40% | 1004.2 hPa | 0 mm | - | 74 W/m² | - |
| 1777847767 | 15.56° C | 40% | 1004.2 hPa | 0 mm | - | 88 W/m² | - |
| 1777847462 | 15.56° C | 39% | 1004.2 hPa | 0 mm | - | 77 W/m² | - |
| 1777847160 | 15.56° C | 39% | 1004.2 hPa | 0 mm | - | 89 W/m² | - |
| 1777846858 | 15.56° C | 39% | 1004.2 hPa | 0 mm | - | 96 W/m² | - |
| 1777846555 | 15.56° C | 40% | 1004.2 hPa | 0 mm | - | 97 W/m² | - |
| 1777846253 | 15.56° C | 39% | 1004.2 hPa | 0 mm | - | 105 W/m² | - |
| 1777845949 | 15.56° C | 39% | 1004.5 hPa | 0 mm | - | 110 W/m² | - |
| 1777845646 | 16.11° C | 39% | 1004.5 hPa | 0 mm | - | 125 W/m² | - |
| 1777845343 | 16.11° C | 41% | 1004.5 hPa | 0 mm | - | 139 W/m² | - |
| 1777845040 | 16.11° C | 39% | 1004.9 hPa | 0 mm | - | 154 W/m² | - |
| 1777844738 | 16.11° C | 38% | 1004.5 hPa | 0 mm | - | 161 W/m² | - |
| 1777844434 | 16.11° C | 41% | 1004.5 hPa | 0 mm | - | 164 W/m² | - |
| 1777844133 | 16.11° C | 40% | 1004.5 hPa | 0 mm | - | 174 W/m² | - |
| 1777843829 | 16.11° C | 38% | 1004.9 hPa | 0 mm | - | 155 W/m² | - |
| 1777843527 | 16.11° C | 37% | 1004.9 hPa | 0 mm | - | 168 W/m² | - |
| 1777843224 | 16.11° C | 37% | 1004.5 hPa | 0 mm | - | 199 W/m² | - |
| 1777842921 | 16.11° C | 37% | 1004.9 hPa | 0 mm | - | 238 W/m² | - |
| 1777842616 | 16.67° C | 39% | 1004.9 hPa | 0 mm | - | 285 W/m² | - |
| 1777842314 | 16.11° C | 36% | 1004.9 hPa | 0 mm | - | 283 W/m² | - |
| 1777842009 | 16.67° C | 39% | 1004.9 hPa | 0 mm | - | 161 W/m² | - |
| 1777841706 | 16.67° C | 38% | 1004.9 hPa | 0 mm | - | 180 W/m² | - |
| 1777841402 | 16.67° C | 36% | 1005.2 hPa | 0 mm | - | 501 W/m² | - |
| 1777841099 | 16.67° C | 37% | 1005.2 hPa | 0 mm | - | 157 W/m² | - |
| 1777840796 | 16.67° C | 35% | 1005.2 hPa | 0 mm | - | 412 W/m² | - |
* Rain latest hour (hover to see other rain measurements)
** Current wind speed in m/s (hover to see current wind gust speed)